DateTimeUTC,F1_A11,F1_S11,BsB_S11,BsG_S11,BsR_S11,BbsB_S11,BbsG_S11,BbsR_S11,BaB_A11,BaG_A11,BaR_A11,Tu_S11,T_S11,Uu_S11,U_S11,P_S11,T1_A11
2021-11-15T12:00:00Z,00000200,21000000,,,,,,,0000.03,0000.36,0000.48,20.0,27.0,,00.0,0626.9,31.2
2021-11-15T12:01:00Z,00000200,21000000,,,,,,,0000.13,-000.12,0000.38,20.1,27.0,,00.0,0626.9,31.2
2021-11-15T12:02:00Z,00000200,21000000,,,,,,,0000.53,0000.15,-000.10,20.1,27.1,,00.0,0626.9,31.2
2021-11-15T12:03:00Z,00000200,61000000,,,,,,,-000.40,0000.02,-000.17,20.1,27.1,,00.0,0626.9,31.1
2021-11-15T12:04:00Z,00000200,41000000,-000.36,-000.19,0000.24,0000.17,0000.17,-000.12,0000.30,0000.02,-000.12,20.3,27.0,,00.0,0627.8,31.1
2021-11-15T12:05:00Z,00000200,01000000,0000.05,-000.08,-000.00,-000.67,0000.21,-000.18,0000.29,0000.36,-000.03,20.3,26.9,,00.0,0627.8,31.1
2021-11-15T12:06:00Z,00000200,01000000,-000.19,0000.14,0000.08,-000.44,0000.00,0000.31,-000.29,0000.03,-000.02,20.2,26.9,,00.0,0627.8,31.1
2021-11-15T12:07:00Z,00000200,01000000,0000.09,-000.14,0000.32,0000.57,0000.59,-000.13,0000.52,0000.17,0000.51,20.1,26.8,,00.0,0627.8,31.1
2021-11-15T12:08:00Z,00000200,01000000,0026.62,0028.03,0030.29,0005.34,0006.00,0006.02,0104.70,0106.72,0108.92,20.0,26.8,,00.0,0626.9,31.0
2021-11-15T12:09:00Z,00000200,01000000,0000.29,0000.52,0001.26,0000.14,0000.21,0000.57,0000.10,-000.18,0000.26,19.9,26.7,,00.0,0626.5,31.0
2021-11-15T12:10:00Z,00000200,01000000,0000.21,0000.27,0000.07,0000.39,0000.11,0000.23,-000.20,-000.32,-000.40,19.8,26.6,,00.0,0626.5,31.0
2021-11-15T12:11:00Z,00000200,01000000,0000.43,0000.31,0000.34,-000.45,0000.25,0000.53,0000.47,0000.29,0000.40,19.7,26.6,,00.0,0626.5,31.0
2021-11-15T12:12:00Z,00000200,01000000,0000.69,0000.02,0000.21,0000.30,-000.04,0000.24,0000.28,0000.12,0000.18,19.6,26.5,,00.0,0626.5,30.9
2021-11-15T12:13:00Z,00000200,01000000,0000.08,0000.23,0000.49,0000.28,0000.05,0000.27,-000.16,-000.12,0000.18,19.5,26.4,,00.0,0626.5,30.9
2021-11-15T12:14:00Z,00000200,01000000,0000.27,-000.14,0000.25,0000.47,-000.11,0000.15,0000.27,0000.30,-000.12,19.5,26.4,,00.0,0626.5,30.9
2021-11-15T12:15:00Z,00000200,01000000,0000.27,-000.35,0000.47,-000.34,0000.09,0000.17,0000.06,-000.02,-000.07,19.4,26.4,,00.0,0626.5,30.9
2021-11-15T12:16:00Z,00000200,01000000,0000.50,-000.09,0000.48,0000.30,-000.06,-000.21,-000.09,-000.05,-000.10,19.3,26.3,,00.0,0626.5,30.9
2021-11-15T12:17:00Z,00000200,01000000,0000.72,-000.14,0000.51,0000.26,0000.28,0000.21,-000.14,-000.23,0000.05,19.3,26.2,,00.0,0626.5,30.9
2021-11-15T12:18:00Z,00000200,01000000,0000.19,-000.02,0000.23,-000.27,-000.13,0000.09,-000.03,0000.16,-000.20,19.2,26.2,,00.0,0626.6,30.9
2021-11-15T12:19:00Z,00000200,01000000,-000.46,0000.21,0000.33,-000.27,0000.18,0000.04,0000.14,0000.12,0000.18,19.2,26.1,,00.0,0626.5,30.9
2021-11-15T12:20:00Z,00000200,01000000,0000.25,-000.19,0000.10,0000.72,-000.16,-000.02,0000.12,0000.09,-000.08,19.2,26.2,,00.0,0626.6,31.0
2021-11-15T12:21:00Z,00000200,01000000,-000.23,0000.14,0000.04,0000.11,0000.35,-000.20,0000.28,0000.09,0000.16,19.2,26.1,,00.0,0626.6,31.0
2021-11-15T12:22:00Z,00000200,01000000,-000.34,0000.05,0000.11,0000.16,0000.23,0000.09,0000.37,0000.53,-000.06,19.3,26.2,,00.0,0626.5,31.0
2021-11-15T12:23:00Z,00000200,01000000,-000.41,0000.19,0000.27,-000.69,0000.42,0000.17,-000.17,-000.18,0000.21,19.4,26.2,,00.0,0626.6,31.0
2021-11-15T12:24:00Z,00000200,01000000,0000.38,0000.10,0000.53,0000.32,0000.10,0000.40,0000.25,0000.42,-000.03,19.4,26.2,,00.0,0626.6,31.0
2021-11-15T12:25:00Z,00000200,01000000,0000.27,0000.01,0000.08,-000.45,0000.10,-000.01,0000.42,0000.02,0000.70,19.5,26.2,,00.0,0626.6,31.0
2021-11-15T12:26:00Z,00000200,01000000,0000.06,-000.33,0000.75,0000.43,0000.23,0000.26,-000.35,-000.17,-000.52,19.5,26.2,,00.0,0626.6,31.0
2021-11-15T12:27:00Z,00000200,01000000,0000.79,0000.09,0000.10,-000.43,0000.17,0000.27,0000.67,0000.20,0000.27,19.6,26.2,,00.0,0626.6,31.1
2021-11-15T12:28:00Z,00000200,01000000,0000.26,0000.01,0000.09,-000.13,0000.23,-000.00,-000.40,0000.13,0000.24,19.6,26.3,,00.0,0626.6,31.0
2021-11-15T12:29:00Z,00000200,01000000,-000.07,0000.06,0000.19,0000.69,0000.18,-000.06,0000.37,0000.19,-000.02,19.7,26.3,,00.0,0626.7,31.1
2021-11-15T12:30:00Z,00000200,01000000,0000.07,-000.09,0000.47,-000.33,0000.28,0000.12,0000.02,-000.22,0000.24,19.7,26.3,,00.0,0626.7,31.1
2021-11-15T12:31:00Z,00000200,01000000,-000.19,0000.20,0000.16,0000.29,0000.27,0000.44,0000.17,0000.32,-000.02,19.8,26.3,,00.0,0626.7,31.1
2021-11-15T12:32:00Z,00000200,01000000,-000.37,0000.06,0000.29,0000.05,0000.00,0000.18,0000.16,0000.18,0000.05,19.8,26.4,,00.0,0626.7,31.1
2021-11-15T12:33:00Z,00000200,01000000,0000.92,-000.02,0000.48,-000.03,0000.06,0000.20,0000.01,0000.42,0000.08,19.7,26.4,,00.0,0626.7,31.1
2021-11-15T12:34:00Z,00000200,01000000,0000.14,0000.11,0000.09,-000.26,-000.00,-000.09,0000.33,-000.21,0000.15,19.7,26.4,,00.0,0626.7,31.1
2021-11-15T12:35:00Z,00000200,01000000,0000.33,0000.34,0000.54,-000.01,-000.12,-000.04,-000.06,0000.35,0000.07,19.8,26.4,,00.0,0626.8,31.1
2021-11-15T12:36:00Z,00000200,01000000,-000.09,0000.23,0000.09,0000.62,-000.06,0000.14,-000.02,-000.07,0000.16,19.8,26.4,,00.0,0626.8,31.1
2021-11-15T12:37:00Z,00000200,01000000,0000.40,0000.34,0000.17,-000.05,0000.21,0000.41,0000.28,0000.15,0000.21,19.8,26.4,,00.0,0626.7,31.1
2021-11-15T12:38:00Z,00000200,01000000,0000.21,-000.17,0000.08,-000.00,0000.23,-000.29,0000.17,0000.01,0000.17,19.9,26.4,,00.0,0626.8,31.1
2021-11-15T12:39:00Z,00000200,01000000,-000.08,0000.14,-000.02,-000.19,-000.18,-000.13,0000.17,0000.32,-000.04,20.0,26.5,,00.0,0626.7,31.1
2021-11-15T12:40:00Z,00000200,01000000,0000.77,0000.25,0000.19,0000.01,0000.32,0000.28,0000.36,0000.30,-000.20,20.0,26.5,,00.0,0626.7,31.1
2021-11-15T12:41:00Z,00000200,01000000,0000.49,0000.04,0000.08,0000.04,0000.21,0000.14,0000.04,-000.12,0000.29,20.0,26.5,,00.0,0626.7,31.1
2021-11-15T12:42:00Z,00000200,01000000,0000.24,-000.12,0000.26,0000.79,0000.22,-000.24,0000.11,0000.22,0000.66,20.0,26.5,,00.0,0626.7,31.1
2021-11-15T12:43:00Z,00000200,01000000,0001.16,0000.59,0000.43,0000.02,0000.07,0000.10,0000.29,0000.25,-000.26,19.9,26.5,,00.0,0626.7,31.1
2021-11-15T12:44:00Z,00000200,01000000,0000.80,0000.05,0000.20,0000.26,0000.18,-000.14,0000.30,0000.37,0000.49,19.8,26.4,,00.0,0626.7,31.1
2021-11-15T12:45:00Z,00000200,01000000,0000.15,0000.00,-000.02,-000.44,0000.09,0000.14,0000.03,0000.33,0000.19,19.8,26.4,,00.0,0626.7,31.1
2021-11-15T12:46:00Z,00000200,01000000,0000.42,0000.08,-000.10,0000.03,0000.13,0000.19,-000.02,-000.28,-000.37,19.7,26.4,,00.0,0626.7,31.0
2021-11-15T12:47:00Z,00000200,01000000,0000.75,-000.04,0000.12,0000.32,0000.20,-000.03,0000.51,0000.30,0000.04,19.6,26.3,,00.0,0626.7,31.0
2021-11-15T12:48:00Z,00000200,01000000,0000.41,0000.18,-000.16,0000.29,0000.16,0000.29,-000.06,-000.12,0000.18,19.6,26.3,,00.0,0626.6,31.0
2021-11-15T12:49:00Z,00000200,01000000,0000.52,-000.16,0000.39,-000.21,-000.05,-000.11,0000.06,0000.52,0000.02,19.6,26.3,,00.0,0626.6,31.0
2021-11-15T12:50:00Z,00000200,01000000,-000.08,-000.52,-000.25,0000.14,-000.06,-000.36,0000.17,-000.00,0000.32,19.6,26.3,,00.0,0626.6,31.0
2021-11-15T12:51:00Z,00000200,01000000,-000.20,0000.01,0000.02,-000.07,-000.03,0000.21,-000.01,-000.37,-000.13,19.6,26.3,,00.0,0626.6,31.0
2021-11-15T12:52:00Z,00000200,01000000,0000.42,0000.03,0000.55,0000.18,0000.11,0000.21,0000.44,0000.68,0000.40,19.6,26.3,,00.0,0626.6,31.1
2021-11-15T12:53:00Z,00000200,01000000,0000.01,0000.33,0000.21,0000.01,-000.06,0000.04,-000.16,0000.00,0000.22,19.6,26.3,,00.0,0626.7,31.1
2021-11-15T12:54:00Z,00000200,01000000,0000.56,-000.08,0000.26,-000.16,0000.38,0000.04,0000.49,0000.39,0000.53,19.7,26.3,,00.0,0626.6,31.1
2021-11-15T12:55:00Z,00000200,01000000,0000.68,0000.19,0000.22,0000.21,0000.18,0000.06,0000.41,-000.04,0000.19,19.7,26.3,,00.0,0626.6,31.1
2021-11-15T12:56:00Z,00000200,01000000,0000.11,0000.09,0000.24,-000.11,-000.05,0000.21,-000.04,0000.58,-000.26,19.8,26.4,,00.0,0626.6,31.1
2021-11-15T12:57:00Z,00000200,41000000,,,,,,,0000.88,0000.61,0000.64,19.8,26.4,,00.0,0626.8,31.1
2021-11-15T12:58:00Z,00000200,61000000,,,,,,,0000.16,0000.04,-000.04,19.5,26.5,,00.0,0625.7,31.1
2021-11-15T12:59:00Z,00000200,21000000,,,,,,,-000.08,0000.03,0000.06,19.6,26.6,,00.0,0625.7,31.1
